Home   Weather   Washington Park   Past weeks
Flag for USA

Past Weather in Washington Park, Alabama, USA — Yesterday and Last 2 Weeks

Now
48 °F

Overcast.


Feels Like: 43 °F
Forecast: 54 / 50 °F
Wind: 13 mph from East

Location: Maxwell Air Force Base / Montgomery

Current Time: Feb 19, 2019 at 11:13:40 am

Latest Report: Feb 19, 2019 at 10:38 am


Visibility: 10 mi

Pressure: 30.26 "Hg

Humidity: 82%

Dew Point: 43 °F

Location of Washington ParkLocation

Past Weather in Washington Park — Graph

°F

Washington Park Temperature Yesterday

Maximum temperature yesterday: 64 °F (at 2:56 pm)
Minimum temperature yesterday: 50 °F (at 6:36 am)
Average temperature yesterday: 55 °F

High & Low Weather Summary for the Past Weeks

 TemperatureHumidityPressure
High78 °F (Feb 7, 12:56 pm)100% (Feb 4, 10:26 am)30.57 "Hg (Feb 4, 10:26 am)
Low37 °F (Feb 13, 6:56 am)23% (Feb 13, 1:56 pm)29.75 "Hg (Feb 16, 2:56 am)
Average59 °F75%30.08 "Hg
* Reported Feb 4 10:26 am — Feb 19 10:02 am, Washington Park. Weather by CustomWeather, © 2019

Note: Actual official high and low records may vary slightly from our data, if they occured in-between our weather recording intervals... More about our weather records

Advertising

Washington Park Weather History for the Previous 24 Hours

Scroll right to see more
 ConditionsComfort  
Time TempWeatherWind HumidityBarometerVisibility
10:02 am
Tue, Feb 19
48 °FPartly sunny.13 mph76%30.28 "Hg10 mi
9:56 am47 °FLight rain. Partly sunny.12 mph81%30.29 "Hg10 mi
9:25 am48 °FLight rain. Overcast.10 mph76%30.32 "Hg10 mi
8:56 am47 °FOvercast.9 mph76%30.34 "Hg10 mi
7:56 am48 °FLight rain. Overcast.13 mph66%30.33 "Hg8 mi
7:23 am52 °FDrizzle. Overcast.12 mph50%30.34 "Hg10 mi
6:56 am52 °FOvercast.12 mph50%30.30 "Hg10 mi
5:56 am51 °FOvercast.12 mph50%30.31 "Hg10 mi
4:56 am51 °FOvercast.9 mph50%30.30 "Hg10 mi
3:56 am51 °FOvercast.12 mph54%30.29 "Hg10 mi
2:56 am52 °FOvercast.5 mph54%30.30 "Hg10 mi
1:56 am52 °FOvercast.6 mph54%30.30 "Hg10 mi
12:56 am52 °FOvercast.8 mph53%30.30 "Hg10 mi
11:56 pm
Mon, Feb 18
52 °FOvercast.8 mph54%30.29 "Hg10 mi
10:56 pm52 °FOvercast.8 mph54%30.31 "Hg10 mi
9:56 pm52 °FOvercast.9 mph54%30.32 "Hg10 mi
8:56 pm53 °FOvercast.8 mph51%30.32 "Hg10 mi
7:56 pm53 °FMostly cloudy.13 mph54%30.28 "Hg10 mi
6:56 pm54 °FOvercast.14 mph51%30.28 "Hg10 mi
5:56 pm54 °FLight rain. Passing clouds.9 mph67%30.26 "Hg10 mi
5:31 pm54 °FLight rain. Partly sunny.6 mph77%30.28 "Hg10 mi
5:19 pm54 °FPartly sunny.5 mph72%30.23 "Hg10 mi
4:56 pm54 °FLight rain. Passing clouds.5 mph72%30.24 "Hg8 mi
3:56 pm58 °FLight rain. Scattered clouds.7 mph56%30.22 "Hg10 mi
3:31 pm63 °FDrizzle. Broken clouds.10 mph30%30.21 "Hg10 mi
2:56 pm64 °FScattered clouds.10 mph26%30.19 "Hg10 mi
1:56 pm64 °FPassing clouds.9 mph32%30.19 "Hg10 mi
12:56 pm61 °FScattered clouds.12 mph34%30.21 "Hg10 mi
11:56 am61 °FScattered clouds.13 mph36%30.23 "Hg10 mi
Weather by CustomWeather, © 2019

See weather overview